Location: Dover
(39.1580°N, 75.5250°W)
Time: 15:45:15
(UTC-05:00)

ISS - All Passes

Search period start: 20 November 2014 00:00
Search period end: 30 November 2014 00:00
Orbit: 408 x 417 km, 51.6° (Epoch: 20 November)

Date Brightness Start Highest point End Pass type
(mag) Time Alt. Az. Time Alt. Az. Time Alt. Az.
20 Nov - 01:17:06 10° SSW 01:20:15 45° SE 01:23:25 10° ENE night (unlit)
20 Nov - 02:54:19 10° W 02:57:02 23° NNW 02:59:46 10° NNE night (unlit)
20 Nov - 04:34:21 10° NNW 04:34:39 10° N 04:34:57 10° N visible
20 Nov - 06:11:00 10° NNW 06:12:31 13° NNE 06:14:03 10° NE visible
20 Nov - 07:46:40 10° NW 07:49:52 43° NNE 07:53:03 10° ESE daylight
20 Nov - 09:23:53 10° W 09:26:18 19° SW 09:28:43 10° S daylight
21 Nov - 00:28:07 10° S 00:30:49 24° SE 00:33:32 10° ENE night (unlit)
21 Nov - 02:04:18 10° W 02:07:21 35° NNW 02:10:26 10° NE night (unlit)
21 Nov - 03:43:34 10° NW 03:44:47 12° NNW 03:46:00 10° N visible
21 Nov - 05:21:53 10° N 05:22:39 11° N 05:23:26 10° NNE visible
21 Nov - 06:57:18 10° NNW 07:00:12 27° NNE 07:03:06 10° E daylight
21 Nov - 08:33:50 10° WNW 08:36:53 34° SW 08:39:55 10° SSE daylight
21 Nov - 23:39:47 10° SSE 23:41:24 13° SE 23:43:02 10° E night (unlit)
22 Nov - 01:14:26 10° WSW 01:17:41 60° NW 01:20:58 10° NE night (unlit)
22 Nov - 02:53:01 10° NW 02:54:54 14° NNW 02:56:46 10° NNE night (unlit)
22 Nov - 06:07:56 10° NNW 06:10:25 19° NNE 06:12:54 10° ENE visible
22 Nov - 07:44:04 10° WNW 07:47:21 67° SW 07:50:38 10° SE daylight
23 Nov - 00:24:47 10° SW 00:28:03 72° SE 00:31:21 10° NE night (unlit)
23 Nov - 02:02:36 10° WNW 02:05:01 19° NNW 02:07:26 10° NNE night (unlit)
23 Nov - 05:18:36 10° NNW 05:20:32 15° NNE 05:22:29 10° NE visible
23 Nov - 06:54:25 10° NW 06:57:43 65° NE 07:01:00 10° ESE daylight
23 Nov - 08:32:31 10° WSW 08:33:58 12° SW 08:35:25 10° SSW daylight
23 Nov - 23:35:24 10° SSW 23:38:27 36° SE 23:41:31 10° ENE night (unlit)
24 Nov - 01:12:19 10° W 01:15:09 26° NNW 01:18:00 10° NNE night (unlit)
24 Nov - 02:52:03 10° NNW 02:52:42 10° N 02:53:21 10° N night (unlit)
24 Nov - 04:29:16 10° N 04:30:34 12° NNE 04:31:52 10° NE visible
24 Nov - 06:04:51 10° NW 06:07:58 37° NNE 06:11:03 10° ESE visible
24 Nov - 07:41:48 10° WNW 07:44:28 23° SW 07:47:07 10° S daylight
24 Nov - 22:46:24 10° S 22:48:52 20° SE 22:51:20 10° E night (unlit)
25 Nov - 00:22:10 10° WSW 00:25:18 41° NNW 00:28:27 10° NE night (unlit)
25 Nov - 02:01:13 10° NW 02:02:39 12° NNW 02:04:05 10° NNE night (unlit)
25 Nov - 03:40:05 10° N 03:40:30 10° N 03:40:56 10° NNE visible
25 Nov - 05:15:19 10° NNW 05:18:05 24° NNE 05:20:52 10° E visible
25 Nov - 06:51:42 10° WNW 06:54:51 42° SW 06:57:59 10° SSE daylight
25 Nov - 21:58:31 10° SE 21:59:18 11° SE 22:00:04 10° ESE night (unlit)
25 Nov - 23:32:12 10° WSW 23:35:29 74° NW 23:38:47 10° NE night (unlit)
26 Nov - 01:10:33 10° WNW 01:12:36 15° NNW 01:14:40 10° NNE night (unlit)
26 Nov - 04:25:48 10° NNW 04:28:07 17° NNE 04:30:26 10° ENE visible
26 Nov - 06:01:49 10° NW 06:05:07 83° SW 06:08:25 10° SE visible
26 Nov - 22:42:28 10° SW 22:45:42 57° SE 22:48:56 10° ENE night (unlit)
27 Nov - 00:20:00 10° WNW 00:22:34 21° NNW 00:25:08 10° NNE night (unlit)
27 Nov - 03:36:18 10° NNW 03:38:02 14° NNE 03:39:46 10° NE visible
27 Nov - 05:12:02 10° NW 05:15:17 53° NE 05:18:31 10° ESE visible
27 Nov - 06:49:37 10° W 06:51:36 15° SW 06:53:36 10° SSW daylight
27 Nov - 21:53:01 10° SSW 21:55:56 29° SE 21:58:51 10° ENE night (unlit)
27 Nov - 23:29:35 10° W 23:32:32 30° NNW 23:35:30 10° NE night (unlit)
28 Nov - 01:09:04 10° NNW 01:10:01 11° N 01:10:58 10° N night (unlit)
28 Nov - 02:46:50 10° N 02:47:52 11° N 02:48:54 10° NNE night (unlit)
28 Nov - 04:22:19 10° NW 04:25:19 31° NNE 04:28:19 10° E visible
28 Nov - 05:59:02 10° WNW 06:01:54 28° SW 06:04:46 10° SSE visible
28 Nov - 21:04:04 10° S 21:06:11 16° SE 21:08:19 10° E night (unlit)
28 Nov - 22:39:20 10° WSW 22:42:32 49° NW 22:45:46 10° NE night (unlit)
29 Nov - 00:18:08 10° NW 00:19:48 13° NNW 00:21:28 10° NNE night (unlit)
29 Nov - 03:32:38 10° NNW 03:35:15 21° NNE 03:37:52 10° ENE visible
29 Nov - 05:08:51 10° WNW 05:12:05 53° SW 05:15:18 10° SE visible
29 Nov - 21:49:17 10° SW 21:52:34 89° SE 21:55:52 10° NE night (unlit)
29 Nov - 23:27:20 10° WNW 23:29:35 17° NNW 23:31:50 10° NNE night (unlit)
